RH
89 100 90 64 30 21 25 24 51 43 46 52 87 98 94 95 96 96 87 72 64 60 56 62 59 65 78 73 63 55 57 61 62 62 63 54 47 41 33 28 26 27 26 21
99 97 100 97 34 19 19 22 28 62 74 76 98 98 97 98 97 99 85 75 72 64 61 57 62 67 66 64 57 52 50 52 55 54 50 42 38 34 30 28 29 30 26 24
97 100 100 93 65 20 19 23 37 50 67 68 90 84 77 97 99 97 96 88 79 69 71 84 78 74 72 72 68 57 54 56 53 48 43 40 36 33 30 28 28 27 25 24
100 100 100 91 72 23 19 23 32 35 37 38 61 59 67 96 91 95 93 93 72 68 78 79 82 80 76 73 74 71 69 66 60 52 45 41 37 33 30 28 29 28 26 27
95 100 97 88 76 29 19 20 23 24 25 51 55 52 55 88 69 74 98 100 100 95 85 87 97 94 88 92 90 84 74 72 73 71 67 62 56 53 48 44 44 42 39 36
96 100 100 100 82 40 27 20 21 23 26 47 60 56 51 76 77 86 98 94 95 82 80 91 100 95 95 98 99 93 86 79 76 74 72 70 68 66 62 59 54 49 44 40
100 100 100 99 81 60 41 31 23 23 27 28 43 51 66 62 80 90 93 93 97 97 82 90 97 100 100 96 90 87 85 83 81 77 74 72 71 68 64 62 61 59 51 47
98 99 100 97 90 91 61 45 28 21 17 24 40 32 38 37 45 91 98 91 88 94 96 94 99 96 91 84 78 75 70 69 70 71 74 73 71 70 70 67 65 64 64 62
100 98 98 93 99 81 78 71 48 32 21 24 32 23 29 27 24 34 42 68 83 83 92 96 93 98 91 80 71 64 61 62 63 65 67 68 68 69 69 68 68 66 64 60
76 74 90 83 86 73 70 60 43 29 25 23 23 23 25 32 40 26 23 26 31 67 81 82 96 90 79 75 71 68 63 62 65 68 68 67 66 66 65 64 65 64 60 55
92 91 96 100 80 79 74 60 41 35 29 24 23 28 24 53 40 38 35 33 30 27 51 76 82 84 85 65 61 61 58 58 61 61 62 63 63 62 61 61 62 63 57 39
100 100 100 88 78 68 61 56 48 41 36 30 27 23 22 36 51 50 39 32 37 42 32 34 60 70 70 67 66 64 66 65 65 62 61 64 65 63 64 63 56 43 25 21
91 87 80 75 76 65 57 63 55 47 42 36 32 19 42 53 61 52 47 45 48 54 61 52 43 56 68 77 83 84 82 76 73 71 74 74 72 70 62 61 56 37 25 24
78 94 94 89 86 79 68 64 68 61 44 36 24 22 34 59 77 64 54 50 52 65 64 60 65 63 68 76 78 82 83 80 74 73 79 83 75 64 61 47 34 29 32 36
73 77 68 54 55 66 69 65 56 46 51 42 36 33 50 79 79 64 70 65 64 62 67 65 62 64 67 71 72 75 80 79 78 80 80 80 84 62 56 47 34 40 39 47
44 44 46 52 58 77 84 63 49 50 50 46 41 32 97 92 57 57 90 71 77 74 71 63 61 59 62 71 82 79 87 86 84 82 80 80 73 56 43 59 64 55 73 38
77 78 84 90 88 80 88 100 84 63 50 36 28 36 79 73 67 63 71 77 86 80 76 76 80 86 90 93 98 98 100 97 88 85 92 86 68 68 68 68 78 45 46 31
51 52 55 58 68 78 92 98 97 93 100 83 61 72 81 70 59 86 94 85 97 100 94 96 98 95 92 97 93 96 100 100 97 93 97 99 97 96 95 51 24 21 22 28
41 52 60 59 62 59 62 80 77 85 100 84 91 92 90 91 90 100 97 83 95 84 78 57 64 88 92 99 98 98 96 97 92 70 68 76 64 64 46 31 33 39 32 29
55 54 59 66 66 66 69 64 59 56 55 62 70 79 76 72 69 85 61 65 66 68 85 75 53 78 98 84 86 94 98 96 96 89 78 84 89 70 60 54 73 62 40 46
47 45 44 49 56 57 69 66 69 62 56 58 61 66 69 69 68 68 67 69 71 65 64 66 56 68 79 92 84 70 69 75 88 96 97 87 77 68 58 45 44 49 43 37
41 50 50 49 53 52 61 65 78 70 66 69 65 57 60 63 62 64 63 61 59 60 62 74 67 52 55 55 59 64 76 88 95 98 92 81 68 60 55 54 51 48 43 43
32 45 50 55 59 54 47 52 64 79 73 72 68 48 61 69 66 60 59 55 50 54 61 66 77 88 89 88 91 81 72 90 99 93 96 96 83 74 68 64 64 61 58 55
53 53 59 62 63 54 49 50 51 67 78 68 57 42 43 65 62 60 65 61 56 56 60 58 57 56 51 52 55 80 87 100 100 100 100 100 98 92 85 80 76 76 74 69
99 91 89 80 73 52 52 45 53 69 80 75 59 44 42 46 52 54 73 77 78 75 64 67 78 64 61 70 76 93 94 94 96 99 99 98 99 99 94 85 79 78 81 78
99 100 94 100 99 96 84 70 64 70 77 84 75 61 53 51 48 49 62 80 83 85 84 82 64 73 69 100 100 100 98 92 99 100 100 100 100 97 81 72 85 88 86 80
Wind_Speed
49 48 40 53 52 47 42 39 32 38 38 45 54 52 47 63 68 61 61 59 58 56 53 48 49 48 45 45 47 46 45 44 42 41 40 39 38 38 37 38 38 38 37 36
49 51 39 49 51 47 42 38 39 33 37 36 46 48 48 46 62 66 67 59 58 55 54 54 54 52 52 52 52 51 49 47 46 45 44 42 41 40 40 40 40 40 41 41
42 38 27 41 53 47 41 35 32 30 32 33 33 39 51 46 49 61 53 54 57 53 50 52 54 55 56 55 54 53 52 51 49 48 46 44 44 43 43 43 43 43 44 44
46 39 29 36 49 46 38 34 28 29 28 30 32 38 41 52 42 59 60 54 49 51 50 55 56 60 61 58 57 56 55 54 52 50 49 48 47 46 46 46 46 47 47 46
44 44 26 36 41 44 38 32 26 25 27 24 25 32 30 43 48 41 52 52 56 53 53 52 52 52 53 54 57 59 60 57 55 54 53 52 51 50 49 49 49 49 48 48
46 39 26 35 39 39 35 32 29 26 28 25 19 21 24 29 40 43 39 44 47 52 51 52 50 48 46 48 49 50 52 53 53 52 52 52 51 51 51 50 49 48 49 49
48 38 25 30 32 34 34 33 33 30 27 23 14 9 12 14 19 31 39 43 45 48 54 55 56 52 48 47 48 49 50 51 53 54 55 55 55 53 52 52 52 51 51 51
40 34 23 30 29 30 37 35 34 33 30 20 14 9 10 9 15 26 30 38 40 43 52 52 51 50 50 48 48 47 47 48 50 51 53 54 55 55 55 54 53 54 53 52
31 30 25 22 25 30 32 36 37 34 30 22 19 13 9 13 15 20 22 27 36 40 43 52 53 54 52 49 49 49 49 48 50 52 54 55 55 55 55 54 54 53 52 50
26 22 27 23 24 25 28 30 32 32 29 25 22 19 14 17 18 21 25 27 29 35 40 44 46 45 48 50 50 49 48 46 46 48 49 51 52 52 51 52 51 49 48 47
25 27 25 25 23 22 28 30 31 30 29 28 25 22 18 20 22 22 24 25 28 31 38 43 48 50 50 51 53 54 53 50 48 47 47 47 48 48 48 47 46 46 45 43
18 24 24 22 19 19 22 27 30 31 31 29 26 23 20 24 24 23 23 24 24 27 33 39 45 51 53 55 54 54 54 53 51 50 48 47 47 46 45 44 44 43 42 41
19 22 21 21 24 22 25 26 28 30 30 30 28 25 18 19 23 22 25 24 25 25 30 34 38 44 50 51 51 52 51 51 51 51 50 48 47 45 44 44 44 43 42 42
18 21 24 23 23 27 27 25 27 28 32 31 29 27 24 21 26 26 25 28 27 27 31 34 37 39 40 43 47 50 50 50 51 52 53 51 48 45 43 42 41 41 40 42
21 22 22 23 25 28 30 32 34 34 34 35 30 30 21 26 28 28 27 27 29 29 33 36 37 38 40 40 44 47 45 47 48 48 49 50 50 45 44 43 41 41 43 43
20 22 23 22 23 24 25 29 32 35 36 40 38 31 22 25 32 32 31 30 29 29 32 35 37 39 40 38 39 40 41 44 46 45 45 42 42 39 37 37 40 45 44 41
16 20 22 23 25 26 23 24 27 29 32 34 35 30 29 21 25 30 30 28 27 30 32 33 35 38 40 41 41 39 40 42 43 41 42 43 39 41 46 50 38 39 40 39
15 17 18 16 19 21 18 19 20 21 21 25 27 27 26 28 32 26 24 27 28 30 32 31 32 35 35 35 34 35 32 38 37 37 40 43 45 41 35 35 37 37 35 34
17 17 16 16 16 17 17 17 18 18 20 24 19 19 19 22 22 20 17 19 24 25 21 23 24 23 26 29 32 32 32 29 28 27 27 27 30 30 30 32 31 31 30 31
17 17 17 17 16 15 13 17 18 20 21 23 22 21 21 22 17 22 21 22 23 22 18 21 25 25 22 20 22 19 21 32 28 26 28 27 25 26 29 30 31 33 31 28
20 20 18 19 19 15 16 16 18 21 20 20 20 21 21 22 22 24 24 23 24 23 21 21 22 24 25 22 21 22 21 22 23 25 26 26 27 28 29 28 27 26 25 24
23 22 20 20 20 18 17 18 19 19 20 20 20 20 20 21 22 23 25 26 25 25 23 23 22 22 22 22 23 22 22 23 25 24 24 23 23 23 22 22 22 22 23 22
25 25 24 23 21 22 20 18 18 19 20 19 19 20 20 20 22 23 24 23 22 22 22 23 24 24 24 24 25 23 23 24 28 30 29 26 24 24 24 23 22 23 24 24
25 26 24 24 24 26 25 22 21 19 19 20 20 20 20 21 21 23 23 23 23 21 21 23 24 24 23 21 22 23 24 25 22 23 26 25 25 25 25 25 25 25 26 27
30 31 30 28 25 30 27 27 24 21 20 20 20 20 20 21 21 22 23 23 23 23 25 25 26 24 21 22 24 23 23 24 25 23 24 26 26 27 28 28 29 29 29 29
16 20 25 26 30 31 29 28 26 25 24 22 22 21 21 21 22 22 24 24 24 26 26 24 26 26 29 22 22 27 26 28 26 27 25 26 28 27 27 30 31 31 30 31
Wind_Direction
188 188 201 201 198 204 211 208 213 215 218 220 223 226 216 214 216 221 229 230 231 227 226 225 229 231 232 232 234 238 241 244 245 246 249 252 255 258 262 266 270 273 277 279
182 183 189 199 200 203 207 210 215 218 220 222 226 226 220 207 214 219 229 231 232 228 227 229 230 232 235 238 240 242 242 244 246 248 249 251 254 258 261 265 270 275 277 278
173 170 173 195 199 202 207 209 211 219 221 228 234 237 225 215 213 209 221 229 228 232 233 232 235 236 235 238 242 243 244 246 247 250 253 256 259 262 264 267 271 273 275 277
177 175 178 193 197 202 202 207 212 214 218 225 233 239 241 234 233 216 215 221 231 237 240 238 236 238 239 239 242 243 243 243 245 248 251 254 256 258 261 264 266 269 272 274
171 174 190 198 198 200 201 205 209 214 217 220 228 242 240 250 244 223 223 229 236 233 235 237 236 238 240 243 245 246 248 248 249 250 251 253 255 258 261 263 266 268 271 273
167 170 176 185 196 200 201 204 210 211 215 219 233 249 233 236 239 235 234 235 221 229 230 234 235 237 240 242 242 243 244 247 249 252 254 256 258 260 262 265 267 269 272 273
177 180 174 190 193 196 202 202 207 214 214 215 220 248 168 211 225 231 238 239 234 228 229 231 231 233 231 235 241 243 245 249 252 253 256 257 259 260 261 263 264 266 268 270
178 178 175 191 204 203 205 206 211 212 216 212 210 215 177 207 207 215 228 238 240 234 221 221 225 229 233 236 240 241 244 246 249 252 254 256 259 260 262 263 265 267 270 272
176 183 182 186 188 201 207 210 214 216 218 211 215 222 223 232 234 229 237 243 235 233 229 226 225 232 236 242 246 248 249 248 248 248 250 253 255 258 260 262 264 266 269 272
191 183 188 199 198 207 211 208 214 218 220 220 213 224 238 240 246 246 239 236 242 244 239 233 232 230 234 237 241 245 248 249 250 251 252 254 256 258 262 263 265 266 268 271
192 203 196 201 208 217 217 216 216 217 222 222 221 230 235 240 254 258 260 258 249 243 239 238 233 235 237 239 240 241 243 246 248 250 252 254 256 259 261 264 267 269 271 271
197 199 197 196 209 215 218 217 221 226 226 229 225 221 240 246 248 259 261 257 253 247 248 245 241 234 234 238 241 243 245 247 248 249 250 252 254 257 259 262 266 268 270 271
178 191 201 214 221 218 223 225 229 233 234 228 229 230 238 252 258 264 275 272 264 254 240 242 242 245 243 243 246 249 250 252 253 255 257 259 260 261 262 266 268 270 272 274
196 209 219 225 223 224 225 230 229 232 229 230 228 245 264 247 249 257 261 265 262 254 248 239 238 244 249 250 252 255 257 258 258 257 257 259 262 265 267 269 271 271 271 275
211 210 224 233 234 235 241 241 240 238 246 243 242 249 250 244 242 254 262 261 257 251 245 239 238 239 242 246 251 253 257 258 259 261 261 262 263 264 267 270 270 271 275 277
216 218 223 226 239 242 247 251 251 250 251 252 256 249 252 237 239 245 259 265 250 245 245 246 245 246 248 245 246 247 249 253 255 257 260 260 258 260 259 258 263 269 273 272
228 234 236 242 249 248 248 250 249 249 252 252 252 245 249 236 245 257 261 252 248 247 250 252 252 254 254 253 251 247 246 251 253 254 254 251 250 254 256 262 268 267 266 265
232 236 243 242 249 248 248 250 244 242 243 244 243 246 250 244 252 258 251 245 255 256 257 254 255 254 257 258 260 259 248 248 252 254 254 254 256 259 259 262 262 261 260 263
248 249 251 254 251 256 251 255 256 250 245 242 238 243 243 249 250 255 244 251 244 251 253 256 257 259 257 253 251 257 251 248 250 254 254 251 247 255 258 260 258 260 263 267
246 250 255 257 257 258 257 258 254 254 253 260 257 252 249 249 249 241 246 243 248 257 259 257 253 252 256 252 262 268 260 245 251 258 257 263 254 258 255 256 260 261 258 257
251 255 260 261 260 259 264 264 263 262 262 260 260 259 253 250 249 254 260 260 258 259 261 255 253 249 253 255 256 263 266 264 261 259 257 257 256 255 257 256 254 254 253 253
256 259 262 263 264 264 263 262 265 267 265 259 256 259 255 253 253 251 251 254 255 254 251 248 249 248 248 251 254 255 259 261 263 263 261 259 257 256 257 255 253 251 250 251
255 259 261 264 264 264 263 262 263 266 266 260 255 262 258 252 250 250 249 254 255 251 249 248 249 247 251 256 254 256 259 263 266 259 256 255 256 257 256 253 250 251 254 255
258 259 260 259 263 267 267 270 269 266 262 255 256 255 254 254 249 249 252 254 255 252 251 252 253 253 254 255 256 251 256 264 270 269 256 249 251 252 254 255 255 256 257 259
261 259 259 258 264 262 271 271 268 264 264 262 258 257 257 252 252 247 249 251 255 256 256 252 255 256 253 247 245 249 258 264 267 266 268 258 252 253 254 257 260 260 260 260
263 263 265 267 261 260 263 265 264 265 265 262 261 259 256 254 254 253 248 249 251 251 254 254 253 249 245 256 245 246 264 266 267 265 264 270 262 256 261 262 261 262 262 261